Bodensee (Kressbronn): 5,0°C  -  Teich der Wetterzentrale Bad Schussenried: 4,4°C  
23.01.2020Höhe
ü. NN
ZeitTemperatur (°C)Nieder-
schlag
Luft-
feuchte
Luft-
druck
Wind
StationaktuellMinimumMaximumaktuellMaximum
Aldingen654 m04:31-6,8-7,5 (23:43)-5,9 (14:46)0,0 l/m²93%1035,80,0 km/h (0 Bft) W7,4 km/h (2 Bft) N-NO (15:28)
Allmannsweiler625 m04:30-5,1-5,1 (04:15)-4,3 (00:20)0,0 l/m²97%1035,09,7 km/h (2 Bft) O12,9 km/h (3 Bft) NO (04:25)
Allmendingen541 m04:30-3,5-3,8 (02:05)-3,3 (14:55)0,0 l/m²93%1035,217,7 km/h (3 Bft) NO17,7 km/h (3 Bft) O-NO (04:30)
Altshausen574 m04:30-4,6-4,7 (04:09)-4,3 (00:46)0,0 l/m²84%1033,58,0 km/h (2 Bft) N-NO14,5 km/h (3 Bft) O (01:39)
Amstetten-Reutti663 m04:30-3,6-4,6 (08:00)-3,6 (14:50)0,0 l/m²96%1034,811,3 km/h (2 Bft) O14,5 km/h (3 Bft) O (02:35)
Amtzell-Grenis677 m04:30-4,8-5,2 (02:35)-4,2 (00:00)0,0 l/m²81%1035,98,0 km/h (2 Bft) W-SW16,1 km/h (3 Bft) N-NO (01:05)
Aulendorf570 m04:30-4,7-4,7 (03:48)-4,1 (00:55)0,0 l/m²92%1034,36,4 km/h (2 Bft) N-NO14,5 km/h (3 Bft) NO (03:55)
Bad Krozingen233 m04:30-2,7-2,7 (06:20)-2,4 (16:20)0,0 l/m²97%1035,64,9 km/h (1 Bft) NO13,2 km/h (3 Bft) NO (16:31)
Bad Saulgau595 m04:30-4,9-4,9 (06:45)-4,3 (14:35)0,0 l/m²94%1033,90,0 km/h (0 Bft) S-SW6,4 km/h (2 Bft) SW (00:30)
Bad Saulgau, Bernhauser Weg594 m04:29-4,7-4,7 (04:12)-4,0 (00:38)0,0 l/m²95%1036,29,7 km/h (2 Bft) NO16,1 km/h (3 Bft) N (03:54)
Bad Saulgau-Lampertsweiler627 m04:30-4,9-5,1 (04:25)-4,2 (00:40)0,0 l/m²91%1037,411,3 km/h (2 Bft) NO14,5 km/h (3 Bft) NO (03:45)
Bad Schussenried572 m04:30-4,3-4,3 (04:15)-3,9 (00:25)0,0 l/m²97%1033,411,3 km/h (2 Bft) O-NO14,5 km/h (3 Bft) O-NO (04:20)
Bergatreute615 m04:30-4,5-4,5 (04:30)-4,0 (00:35)0,0 l/m²97%1034,36,4 km/h (2 Bft) NO12,9 km/h (3 Bft) NO (00:45)
Biberach (Riss), Boehringer533 m04:40-3,9-4,1 (04:30)-3,6 (01:00)0,0 l/m²95%1032,42,9 km/h (1 Bft) O20,5 km/h (4 Bft) N-NW (00:20)
Biberach (Riss), Realschule553 m04:30-4,6-4,6 (03:25)-4,1 (00:00)0,0 l/m²95%1036,112,9 km/h (3 Bft) NO19,3 km/h (3 Bft) O-NO (00:20)
Burgrieden523 m04:30-4,1-4,4 (02:00)-4,0 (00:10)0,0 l/m²91%1035,211,3 km/h (2 Bft) O-NO17,7 km/h (3 Bft) N-NO (00:10)
Burgrieden-Hochstetten510 m04:30-3,7-4,0 (01:15)-3,5 (15:40)0,0 l/m²94%1035,59,7 km/h (2 Bft) O-SO17,7 km/h (3 Bft) O (23:30)
Ebersbach579 m04:30-4,7-4,7 (04:30)-4,2 (00:35)0,0 l/m²96%1035,78,0 km/h (2 Bft) NO19,3 km/h (3 Bft) NO (01:00)
Ebersbach-Boos605 m04:30-5,1-5,1 (04:20)-4,4 (00:50)0,0 l/m²97%1035,616,1 km/h (3 Bft) O16,1 km/h (3 Bft) N-NO (00:50)
Ebersbach-Menzenweiler661 m04:30-5,3-5,3 (04:20)-4,7 (00:50)0,0 l/m²97%1035,66,4 km/h (2 Bft) O-NO14,5 km/h (3 Bft) O-NO (00:35)
Ehingen535 m00:05-3,7-3,7 (00:05)-3,6 (00:00)0,0 l/m²90%1036,415,3 km/h (3 Bft) N15,3 km/h (3 Bft) N (00:05)
Erlenmoos645 m04:30-4,8-4,8 (03:10)-3,7 (00:55)0,0 l/m²92%1035,38,0 km/h (2 Bft) O-NO11,3 km/h (2 Bft) O (00:25)
Ertingen569 m04:30-4,7-4,7 (03:35)-4,0 (00:00)0,0 l/m²96%1035,18,0 km/h (2 Bft) N16,1 km/h (3 Bft) N-NW (00:00)
Friedrichshafen405 m04:30-2,6-2,7 (01:50)-1,6 (13:50)0,0 l/m²92%1035,06,4 km/h (2 Bft) N-NO20,9 km/h (4 Bft) NO (01:45)
Günzburg443 m04:30-2,6-3,4 (00:00)-2,6 (04:25)0,0 l/m²93%1032,86,4 km/h (2 Bft) O-NO11,3 km/h (2 Bft) N-NO (02:40)
Hochdorf-Appendorf537 m04:30-4,8-4,8 (04:10)-3,9 (00:10)0,0 l/m²76%1034,819,3 km/h (3 Bft) NO20,9 km/h (4 Bft) N-NO (01:05)
Höchsten802 m04:30-6,3-6,3 (00:05)-5,9 (02:25)0,0 l/m²92%1032,212,9 km/h (3 Bft) N-NO17,7 km/h (3 Bft) N-NO (00:00)
Horgenzell618 m04:30-5,1-5,2 (00:55)-4,7 (00:00)0,0 l/m²95%1033,33,2 km/h (1 Bft) O17,7 km/h (3 Bft) NO (00:20)
Hoßkirch632 m04:30-5,1-5,1 (04:25)-4,6 (01:05)0,0 l/m²95%1033,911,3 km/h (2 Bft) O-NO16,1 km/h (3 Bft) NO (00:15)
Isny, Am Dreifingerbach695 m04:30-6,2-6,2 (04:30)-4,3 (01:10)0,0 l/m²94%1033,80,0 km/h (0 Bft) NO11,3 km/h (2 Bft) N-NO (01:10)
Isny, Weidachweg706 m04:30-6,6-6,7 (04:20)-4,4 (00:30)0,0 l/m²90%1035,70,0 km/h (0 Bft) O-SO16,1 km/h (3 Bft) N (00:05)
Kappel-Grafenhausen163 m04:25-1,7-1,8 (03:15)-1,2 (14:40)0,0 l/m²92%1033,16,4 km/h (2 Bft) N16,1 km/h (3 Bft) N (15:15)
Kirchberg an der Iller584 m04:30-4,5-4,5 (04:05)-3,7 (14:55)0,0 l/m²87%1023,87,6 km/h (2 Bft) W-SW11,4 km/h (2 Bft) W-NW (00:00)
Kißlegg-Staibshof709 m04:30-4,6-4,9 (01:55)-4,3 (00:30)0,0 l/m²96%1034,70,0 km/h (0 Bft) NO11,3 km/h (2 Bft) NO (00:40)
Kressbronn398 m04:32-2,7-2,7 (04:28)-1,4 (00:00)0,0 l/m²89%1033,68,0 km/h (2 Bft) NO17,7 km/h (3 Bft) NO (02:04)
Kreuzthal-Steinberg-Alpe930 m04:30-3,8-5,9 (01:50)-2,8 (00:00)0,0 l/m²100%1032,01,8 km/h (1 Bft) O-SO5,4 km/h (1 Bft) W-NW (04:30)
Kreuzthal-Steinberggipfel1040 m04:300,3-1,9 (01:50)1,3 (00:00)-70%1032,06,8 km/h (2 Bft) O-SO21,6 km/h (4 Bft) S (04:20)
Kristberg im Montafon (AT)1425 m04:321,4-0,1 (00:54)2,3 (02:14)0,0 l/m²41%1038,91,8 km/h (1 Bft) N-NO8,6 km/h (2 Bft) N (02:08)
Laupheim500 m04:30-4,0-4,3 (01:45)-3,8 (00:10)0,0 l/m²92%1034,611,3 km/h (2 Bft) O-NO16,1 km/h (3 Bft) O-SO (01:30)
Leutkirch-Heggelbach670 m04:30-4,7-4,8 (01:40)-3,9 (00:00)0,0 l/m²94%1033,50,0 km/h (0 Bft) N-NO11,3 km/h (2 Bft) O-NO (02:30)
Lindau-Insel420 m04:30-2,1-2,1 (02:45)-0,8 (14:15)0,0 l/m²92%1034,14,8 km/h (1 Bft) N-NO16,1 km/h (3 Bft) NO (01:50)
Lindau-Stadt412 m04:30-2,3-2,3 (04:30)-1,0 (13:10)0,0 l/m²91%1034,16,4 km/h (2 Bft) N-NO11,3 km/h (2 Bft) N-NW (02:25)
Maierhöfen im Allgäu733 m04:30-7,2-7,2 (04:30)-4,3 (00:25)0,0 l/m²93%1034,10,0 km/h (0 Bft) O8,0 km/h (2 Bft) O (00:15)
Maselheim543 m04:30-4,7-4,8 (02:55)-4,4 (14:45)0,0 l/m²93%1035,26,4 km/h (2 Bft) O-SO16,1 km/h (3 Bft) O-NO (00:35)
Maselheim-Sulmingen548 m04:30-4,4-4,7 (02:05)-4,1 (14:50)0,0 l/m²94%1036,712,9 km/h (3 Bft) O16,1 km/h (3 Bft) O (23:15)
Mietingen-Baltringen528 m04:30-4,0-4,4 (02:10)-3,9 (00:00)0,0 l/m²92%1036,914,5 km/h (3 Bft) O16,1 km/h (3 Bft) O (00:00)
Mindelheim-Apfeltrach620 m04:31-4,0-4,7 (00:39)-3,9 (03:47)0,0 l/m²93%1036,01,6 km/h (1 Bft) O-NO6,4 km/h (2 Bft) S-SO (03:02)
Mittelbiberach577 m04:33-4,7-4,8 (03:14)-4,3 (00:00)0,0 l/m²92%1036,44,8 km/h (1 Bft) O16,0 km/h (3 Bft) NO (00:21)
Neresheim552 m04:00-3,4-4,6 (00:00)-3,4 (04:00)0,0 l/m²100%1032,64,0 km/h (1 Bft) S-SO4,0 km/h (1 Bft) S-SO (04:00)
Neukirch570 m04:30-3,9-4,1 (03:35)-2,7 (14:45)0,0 l/m²96%1034,39,7 km/h (2 Bft) NO16,1 km/h (3 Bft) NO (01:35)
Ochsenhausen, Birkenstraße613 m04:30-4,8-4,9 (04:25)-3,8 (14:50)0,0 l/m²90%1035,70,0 km/h (0 Bft) O-NO0,0 km/h (0 Bft) N-NW (05:00)
Ochsenhausen, Unt. Wiesen575 m04:30-5,1-5,3 (03:55)-4,1 (01:00)0,0 l/m²95%1036,711,3 km/h (2 Bft) O-NO16,1 km/h (3 Bft) O-SO (00:30)
Opfenbach-Göritz561 m04:30-4,9-4,9 (04:13)-3,5 (01:00)0,0 l/m²92%1032,63,2 km/h (1 Bft) N13,0 km/h (3 Bft) N (01:55)
Ostrach619 m04:30-4,0-4,0 (04:30)-3,5 (00:00)0,0 l/m²95%1033,39,7 km/h (2 Bft) NO16,1 km/h (3 Bft) N-NW (02:45)
Ravensburg, Goethestraße428 m04:40-2,8-2,9 (01:25)-2,2 (00:00)0,0 l/m²91%1034,117,7 km/h (3 Bft) NO22,5 km/h (4 Bft) NO (00:45)
Ravensburg, Springerstraße441 m04:30-2,7-2,7 (00:40)-2,3 (00:00)0,0 l/m²77%1031,60,0 km/h (0 Bft) NW2,6 km/h (1 Bft) N-NW (01:05)
Ravensburg-Wernsreute511 m04:30-4,1-4,1 (09:55)-3,3 (13:30)0,0 l/m²95%1037,416,1 km/h (3 Bft) N-NO24,1 km/h (4 Bft) NO (01:10)
Reichenbach an der Fils343 m04:30-5,1-5,7 (03:00)-4,2 (00:00)0,0 l/m²89%1037,23,2 km/h (1 Bft) S-SW4,8 km/h (1 Bft) N-NO (00:05)
Reinstetten559 m04:30-4,7-4,8 (04:20)-3,9 (00:00)0,0 l/m²94%1035,814,5 km/h (3 Bft) O-NO16,1 km/h (3 Bft) O-NO (00:05)
Riedlingen530 m04:30-4,4-4,6 (02:45)-3,8 (00:00)0,0 l/m²95%1035,10,0 km/h (0 Bft) NO17,7 km/h (3 Bft) NO (02:40)
Rißtissen489 m04:30-3,2-3,6 (02:10)-3,2 (00:00)0,0 l/m²95%1032,711,3 km/h (2 Bft) NO14,5 km/h (3 Bft) N-NO (00:00)
Rottweil-Hausen681 m04:29-5,7-5,8 (01:43)-5,0 (00:11)0,0 l/m²90%1035,33,2 km/h (1 Bft) O14,4 km/h (3 Bft) N (00:04)
Schemmerhofen520 m04:30-3,7-3,9 (02:55)-3,4 (00:00)0,0 l/m²96%1034,911,3 km/h (2 Bft) NO12,9 km/h (3 Bft) O-NO (00:50)
Silbertal im Montafon (AT)884 m04:29-4,5-6,3 (00:37)-4,1 (03:47)0,0 l/m²92%1037,90,0 km/h (0 Bft) NW0,0 km/h (0 Bft) N (00:00)
Tettnang466 m04:30-3,7-3,7 (04:25)-2,3 (00:25)0,0 l/m²94%1034,46,4 km/h (2 Bft) NO16,1 km/h (3 Bft) NO (01:10)
Tuttlingen662 m04:26-8,4-8,7 (03:56)-6,8 (00:01)0,0 l/m²77%1032,30,0 km/h (0 Bft) SW0,0 km/h (0 Bft) SW (00:01)
Tuttlingen, Möhringer-Vorstadt711 m04:30-7,2-7,6 (08:00)-5,0 (15:00)0,0 l/m²93%1034,53,2 km/h (1 Bft) NO9,7 km/h (2 Bft) W (15:10)
Ummendorf547 m04:30-4,8-4,9 (04:00)-3,9 (00:00)0,0 l/m²85%1036,311,3 km/h (2 Bft) O17,7 km/h (3 Bft) O (01:00)
Ummendorf-Fischbach558 m04:30-5,1-5,2 (03:35)-4,1 (01:45)0,0 l/m²85%1036,16,4 km/h (2 Bft) O-NO16,1 km/h (3 Bft) O (00:20)
Waldburg707 m04:30-4,7-4,7 (03:05)-4,1 (00:00)0,0 l/m²96%1034,26,4 km/h (2 Bft) N16,1 km/h (3 Bft) N (01:00)
Waltenhofen im Allgäu720 m04:30-4,9-4,9 (04:20)-3,9 (00:35)0,0 l/m²93%1033,73,2 km/h (1 Bft) S12,9 km/h (3 Bft) S (11:45)
Wangen, Hans-Schnitzer-Weg569 m04:30-3,8-3,8 (02:45)-2,4 (00:00)0,0 l/m²66%1033,20,0 km/h (0 Bft) N-NO6,4 km/h (2 Bft) N (01:30)
Wangen, Südring548 m04:34-4,1-4,2 (03:40)-2,9 (01:00)0,0 l/m²93%1033,96,5 km/h (2 Bft) O-NO16,2 km/h (3 Bft) N (01:48)
Weingarten500 m04:30-3,4-3,4 (00:55)-3,1 (00:00)0,0 l/m²91%1034,49,7 km/h (2 Bft) N16,1 km/h (3 Bft) N-NO (01:45)
Winterlingen785 m04:15-8,6-8,6 (04:15)-6,3 (00:15)0,0 l/m²92%1034,61,8 km/h (1 Bft) N4,3 km/h (1 Bft) O (00:10)

niederschlagsdatenbank | info | login - erfassung

Sollten Sie Interesse haben, an der Niederschlagsdatenbank teilzunehmen, finden Sie > hier < weitere Informationen.
Datum: . . Kalender
Anmerkung:0,0 = nicht messbarer Niederschlag
 -  = kein Niederschlag
 k  = kumulierter Niederschlag

< 15.10.201617.10.2016 >


Niederschlagswerte vom 16.10.2016    -    derzeit 111 Stationen

Die Niederschlagswerte des gewählten Tages lassen sich durch Klicken auf das Datum sortieren.
Die Angaben sind in l/m².

Station13.10.14.10.15.10.16.10.17.10.18.10.19.10.Bemerkung 16.10.
Aichstetten Ulmenstraße 7-------
Aichstetten-Nestbaum Nestbaum----4,5--
Albbruck Furmisstr. 181,00,6--7,4-2,2
Zäher Bodennebel bis Mittag, danach hohe Schleierwolken u. Sonne +19 [weiterlesen...]
Bodennebel
Allmendingen Querqueviller Ring 6--1,00,211,85,0-
Nebelnässe
Amstetten-Reutti Gassenäcker 13-0,20,80,47,42,41,2
Bodennebel Nebelnässe
Aulendorf Steinenbacher Weg 33--0,0-9,83,02,2
Aulendorf-Blönried Heuweg 32----14,01,83,0
Bad Bellingen Rheinstraße 76-------
Bad Buchau Hanfweiher 1--1,00,0-7,01,0
Nebelnässe
Bad Saulgau Walserweg-0,01,5-10,06,01,0
Bad Saulgau-Hochberg Lampertsweiler Straße 12--1,0-8,04,01,0
Bad Schussenried Konradstraße-0,00,10,27,92,40,5
Bodennebel Nebelnässe
Bad Schussenried Lortzingstrasse----7,02,50,5
Bad Schussenried Klosterstraße--0,5-7,02,00,8
Bad Schussenried Theodor-Storm-Strasse--0,2-7,03,00,5
Bad Schussenried-Hopferbach Unterer Öschweg 16/1--0,0-8,0--
Bad Schussenried-Lufthütte Hauptgasse 17-------
Bad Schussenried-Sattenbeuren Ortsstraße 7-------
Bad Schussenried-Schwaigfurt Schwaigfurt 2--0,1-8,02,0-
Bad Waldsee-Haisterkirch Zur Spitzenkapelle 1--0,0-10,01,52,2
+3/+18°C, ganztags ungetrübter Sonnenschein
Bad Wurzach-Seibranz Kimpflerhof 2 -------
Baienfurt Untere Bergstrasse 7----10,04,01,0
Balzheim Hinterm Liess 19------13,0
Berg-Kleintobel Kleintobel----11,1-1,1
Biberach Amriswilstrasse--0,2-4,82,11,0
Biberach Strölinweg-------
Biberach Erlenweg----4,53,5-
Biberach Neue Heimat 5--0,8-4,53,0-
Biberach Mittelbergstraße 9-------
Biberach auf dem Lindele-------
Biberach-Bergerhausen Löcherstr.1--0,50,13,51,2-
Nebelnässe
Bierstetten Schloßbühl 6-0,21,0-7,84,82,0
Blaubeuren-Pappelau Sotzenhauserstr.7---2,0 k23,03,00,5
Nieselregen Nebelnässe
Bühlertal Wolfinstraße 16----10,010,010,0
Dornstadt-Tomerdingen Maienweg 9-0,30,90,316,82,71,2
Dürnau Dorfäckerweg 5-------
Eberhardzell Lilienweg--0,4-4,96,82,3
Ebersbach-Roßwälden Appenwiesen-------
Ehingen Rosenstraße-0,10,10,019,82,5-
Nebelnässe
Ehingen Zanderstraße----22,51,4-
Ehingen Schlaufenbühl--0,60,020,41,20,6
Bodennebel
Ehingen Schillerstraße-------
Ehingen-Herbertshofen Tobelweg 9-------
Eislingen Albstraße 125-0,02,0-5,110,82,9
Erbach-Bach Hauptstraße 24-0,20,5-9,07,0-
Erlenmoos Haldenweg 15----3,32,21,9
Füramoos Hungersberg 10,00,00,00,00,712,42,7
Gutenzell Kleinser Berg 1----4,5-2,5
Gutenzell-Hürbel Bei der Sägmühle 1-------
Herbertingen Drosselweg----12,51,01,5
Herbertingen Hirschstrasse--2,0-10,02,0-
Hochdorf-Schweinhausen Lindenweg 2----7,32,21,6
Hohentengen-Bremen Bremer Halde 4-1,03,00,011,04,01,8
Nebelnässe
Horgenzell-Ringgenweiler Ringgenweiler 620-0,0--11,33,83,1
Hüttisheim Ulmer Weg 2--0,0-12,010,00,5
Illerkirchberg Mahdauweg 20-0,40,0-14,62,90,2
Illerrieden-Wangen Am Muckenberg 12-------
Immenstaad Stockwiesen 10-------
Inzigkofen Butzenweg 1-0,04,0-18,31,00,9
Isny Am Dreifingerbach 390,2-0,20,215,20,81,0
Tau
Kirchberg Rosenstr. 7-0,3--6,3-3,3
Kreuzthal-Steinberg-Alpe Im Kreuzbachthal 85----16,30,62,0
Langenau Wasserstr. 54-1-1,01,50,020,53,02,0
Bodennebel Nebelnässe
Langenenslingen Schattenweiler Str. 18-1,13,20,26,52,91,0
Bodennebel Nebelnässe
Leutkirch Unterer Auenweg 25----10,40,60,8
Leutkirch Nachtigallenweg 28----13,02,51,5
Leutkirch-Adrazhofen Bergstraße 20--0,00,013,04,01,2
Bodennebel Nebelnässe
Merklingen Millergasse 9-------
Mietingen Seerosenweg 10-------
Mietingen-Walpertshofen Bussenweg 31----4,0-1,0
Mittelbiberach-Reute Rindenmooser Straße 2--0,5-5,02,31,8
Moosburg Käserweg 5--1,20,27,71,41,2
Nach Nebelauflösung, am späten Vormittag, sonnig und angenehm warm.
Nebelnässe
Münsingen-Rietheim In der Lise 20-0,43,2-11,24,40,8
Neresheim Alfred-Delp-Straße 8-0,00,5-4,23,41,3
Bodennebel
Oberdischingen Normannenstraße 7----15,63,6-
Ochsenhausen Ehrensberger Weg 5-0,00,0-2,82,42,0
Öpfingen Hauptstraße 99-0,01,80,117,02,0-
Bodennebel Nebelnässe
Ostrach Uhlandweg--2,5-7,52,52,0
Pfaffenhofen-Kadeltshofen Mühlbachstraße 4-0,00,00,09,07,02,0
Bodennebel Nebelnässe
Pfullendorf Am Schweizersbild --2,7-8,5-10,8
Rangendingen Donaustraße 19--1,0-18,0-4,0
Ravensburg Bleicherstraße----10,01,1-
Ravensburg-Schmalegg St.-Magdalena-Ring 42----11,05,11,8
Ravensburg-Wernsreute Wernsreute 25----9,5--
Ravensburg-Weststadt Karl-Erb-Ring 142----12,01,1-
Regensburg Orleansstraße 3-------
Riedhausen Blütenweg 13--1,80,412,01,63,2
Temp. +5,1°C / +12,4°C
Nieselregen
Riedlingen Berliner Str. 41-------
Riedlingen-Neufra Panoramaweg----14,04,0-
Riedlingen-Neufra Riedlinger Strasse-------
Schelklingen-Gundershofen Schwarzer-Straße 14--2,5-10,03,0-
Temp. zw. -0,8°C und +28,6°C. Zuerst Nebel, dann sehr schönes, sonn [weiterlesen...]
Schemmerberg Drosselweg 9--1,5-8,01,03,0
Schwörstadt Schulstrasse 19-------
Seekirch Haldenberg 7-------
Sigmaringendorf Weingartenstraße 7-0,45,6-8,1-1,8
Tuttlingen-Möhringen Eßlinger Straße--2,2-11,64,00,2
Ulm Eberhardtstraße 75-------
Ummendorf Tulpenweg-0,00,00,05,22,51,9
Bodennebel
Ummendorf Friedrich-Schiller-Str.-------
Uttenweiler-Ahlen Seekircher Straße 8--1,1-8,11,51,2
Vöhringen (Schwarzwald) Drosselweg 3----14,0--
Waldburg Kastanienweg11----11,0--
Wangen-Bergerhöhe Berg 2----11,2-1,8
Warthausen An der Schloßhalde 10,0-0,5-4,0--
Warthausen Schwabenwiesen ----4,62,9-
Warthausen-Barabein Barabein 20-------
Weingarten Laurastraße0,0-0,0-7,24,21,0
+ 8,5 ° C um 5.00 Uhr
Weingarten Hoyerstraße-------
Weingarten Marienstraße----9,52,01,0
Wolfegg-Veesers Veesers 1-------
Wolpertswende Aulendorfer Str. 17----8,10,90,9
Bodennebel

Stillgelegte Niederschlagsstationen    -    derzeit 50 Stationen

StationLetzte Meldung13.10.14.10.15.10.16.10.17.10.18.10.19.10.Bemerkung 16.10.
Allmannsweiler Eggatsweilerstr.2802.09.2014-------
Aulendorf-Rugetsweiler Erikaweg 325.07.2013-------
Aulendorf-Zollenreute Imterstraße 1209.02.2019----7,21,82,1
Bad Saulgau Willi-Burth-Straße19.09.2011-------
Bad Saulgau Eichendorffweg28.03.2013-------
Bad Saulgau Seewattenstraße 12815.01.2014-------
Bad Saulgau-Lampertsweiler Valentinstr. 2618.02.2015-------
Bad Schussenried-Steinhausen Drosselgasse 4/126.09.2012-------
Bad Waldsee-Michelwinnanden Michelberg 531.12.2014-------
Bad Waldsee-Osterhofen Hochwaldgasse 406.03.2015-------
Bad Waldsee-Steinach Hofraingasse 1510.11.2013-------
Bad Wurzach-Dietmanns Postweg 519.01.2019-0,00,00,010,01,52,0
Nebelnässe
Bad Wurzach-Haidgau Wengener Straße 507.10.2012-------
Bad Wurzach-Ziegelbach Ziegelbach-Greut 507.11.2014-------
Bergatreute Bolanden 113.02.2012-------
Betzenweiler Offinger Straße 505.01.2017-0,20,40,09,72,4-
Schon um zehn Uhr: Nebel weg, Sonne da!
Bodennebel Nebelnässe
Burgrieden Am Nonnenberg 328.10.2013-------
Burgrieden-Rot Schmiedgasse 518.09.2013-------
Dettingen a. d. Iller Schleifweg 420.05.2019-------
Eberhardzell Schillerstraße05.07.2010-------
Ehingen Am Elzengraben17.06.2016-------
Gammertingen Schillerstraße 2216.01.2016-------
Griesingen Blumenstraße 906.10.2015-------
Günzburg Erlenbadweg 34 1/231.12.2010-------
Hoßkirch Kirchstraße 805.01.2018--1,30,19,41,21,8
Bodennebel Nebelnässe
Ingoldingen-Grodt Ingoldinger Weg 1919.11.2016--0,6--6,0-
Kisslegg Kirchmoosstraße02.05.2011-------
Krauchenwies-Hausen Rosenrain 123.11.2013-------
Kressbronn Irisstraße 410.03.2010-------
Leutkirch-Ottmannshofen Spitalriedstraße 527.07.2012-------
Leutkirch-Rotis Rotis 5/208.05.2016-------
Leutkirch-Wuchzenhofen Untere Kirchstraße 18/119.09.2016-------
Mietingen Hangweg 1530.12.2017-0,00,10,05,02,10,5
Nebelnässe
Mössingen-Bästenhardt Weissdornweg 721.07.2014-------
Ostrach Heiligenberger Straße19.08.2013-------
Pfullendorf Ringstraße 18.03.2012-------
Ravensburg Olgastraße30.10.2016--0,00,08,70,10,7
Bodennebel Nebelnässe
Seltmans Amselweg 2209.04.2013-------
Stuttgart-Bad Cannstatt Beuthener Str. 6703.02.2013-------
Stuttgart-Möhringen Glashütter Weg 1023.04.2017-----10,05,0
Nebel/Dichte Wolken, +5°C, 96%-> +19°C, 1019 hPa.,-> Leichter [weiterlesen...]
Bodennebel Nebelnässe
Stuttgart-Rohr Hirschsprung 307.11.2012-------
Talheim Im Schecken 2121.08.2016-------
Tannheim Eggmannstr. 42 22.10.2017--0,3-3,03,93,0
Tmin +5,4°C__Tmax +20,5__24 Std.
Tettnang-Ramsbach Jahnstr. 24/126.03.2011-------
Tuttlingen-Möhringen Belchenstraße01.01.2015-------
Ummendorf Bergstraße23.10.2017----4,03,02,0
Vogt Mühlwies 1822.05.2015-------
Wangen-Atzenberg Keplerweg 324.02.2019-------
Weingarten Bischof-Sproll-Straße30.06.2011-------
Wilhelmsdorf Riedhauser Straße 28.10.2012-------
Wilhelmsdorf Seefeld20.08.2013-------
Wurmlingen An der Steig 3014.10.2016-------
Die Niederschlagswerte des gewählten Tages lassen sich durch Klicken auf das Datum sortieren.
Die Angaben sind in l/m².

Wetterbeobachtungen Legende:

  • Regen
  • Nieselregen
  • Schneeregen
  • Schnee
  • Graupel
  • Eiskörner
  • Hagel
  • Bodennebel
  • Gewitter
  • Nebelnässe
  • Schneegriesel

Grafische Darstellung der Tagesniederschläge vom 16.10.2016

< 15.10.201617.10.2016 >Monats- und Jahresniederschlag


 
wetterstationen
wetterstationen
- derzeit 81 Stationen
niederschlagsdatenbank
wetterstationen
- kartographische Darstellung
niederschlagsdatenbank
niederschlagsstationen
- derzeit 111 Stationen
niederschlagsdatenbank
niederschlagsstationen
- kartographische Darstellung
 
Do. 23.01.2020 - 7.30 Uhr (MEZ)
1.Biberach
Amriswilstrasse
Reste 1,5cm
 
  treffpunkt & service
--- Anzeigen --------------------------------
zugriffe:
insgesamt: 45.749.261
aktueller monat: 237.821
heute: 188
momentan online: 7
 
 
monatshöchstwert: 653.625
vorheriger monat: 318.382
gestern: 15.758
tageshöchstwert: 51.297
 
wetterwarte süd
 
konradstraße 3
info@wetterwarte-sued.com
roland roth
 
88427 bad schussenried